{"data":{"norad_id":89261,"epoch":"2026-05-09T16:44:47.411808Z","epoch_age_seconds":1411216,"freshness":"OLD","line1":"1 89261U          26129.69777097  .00000568  00000+0  18026-3 0  9996","line2":"2 89261  98.1640 122.9130 0014292  71.7394 288.5351 14.43433511555155","mean_motion":14.43433511,"eccentricity":0.0014292,"inclination_deg":98.164,"raan_deg":122.913,"arg_perigee_deg":71.7394,"mean_anomaly_deg":288.5351,"bstar":0.00018026,"rev_number":55515,"period_min":99.762128911804,"perigee_km":736.99313764618,"apogee_km":757.36013414302,"semimajor_km":7125.3136358946,"source":"CELESTRAK","updated_at":"2026-05-25T13:38:11.780115Z"}}